Weather History for Sturgis, MI

Change the Weather History Date:

Saturday, September 7, 2013

  Actual Average (KHAI) Record (KHAI)
Temperature  
Mean Temperature 72 °F -  
Max Temperature 84 °F 79 °F 95 °F (1960)
Min Temperature 60 °F 54 °F 38 °F (1962)
Cooling Degree Days 7    
Growing Degree Days 22 (Base 50)    
Moisture  
Dew Point 59 °F    
Average Humidity 66    
Maximum Humidity 88    
Minimum Humidity 45    
Precipitation  
Precipitation 0.00 in - - ()
Sea Level Pressure  
Sea Level Pressure 30.00 in    
Wind  
Wind Speed 2 mph (WSW)    
Max Wind Speed 10 mph    
Max Gust Speed 17 mph    
Visibility 10 miles    
Events Rain    
Averages and records for this station are not official NWS values.
T = Trace of Precipitation, MM = Missing Value Source: NWS Daily Summary

Daily Weather History Graph

Daily Weather History Graph

Search for Another Location

Airport:

Trip Planner

Search our weather history database for the weather conditions in past years. The results will help you decide how hot, cold, wet, or windy it might be!

Date:

Astronomy

Sep. 07, 2013 Rise Set
Actual Time 7:13 AM EDT 8:04 PM EDT
Civil Twilight 6:45 AM EDT 8:32 PM EDT
Nautical Twilight 6:12 AM EDT 9:06 PM EDT
Astronomical Twilight 5:37 AM EDT 9:41 PM EDT
Moon 9:30 AM EDT (9/7) 8:59 PM EDT (9/7)
Length of Visible Light 13h 47m
Length of Day
12h 50m
Waxing Crescent, 5% of the Moon is Illuminated
Sep 7
Waxing Crescent
Sep 12
First Quarter
Sep 19
Full
Sep 26
Last Quarter
Oct 4
New

Hourly Weather History & Observations

Time (EDT) Temp. Heat Index Dew Point Humidity Pressure Visibility Wind Dir Wind Speed Gust Speed Precip Events Conditions
12:15 AM 64.4 °F - 51.8 °F 64% 30.08 in 10.0 mi Calm Calm - N/A   Clear
12:34 AM 64.4 °F - 51.8 °F 64% 30.07 in 10.0 mi Calm Calm - N/A   Clear
12:55 AM 62.6 °F - 51.8 °F 68% 30.07 in 10.0 mi Calm Calm - N/A   Clear
1:15 AM 62.6 °F - 51.8 °F 68% 30.07 in 10.0 mi Calm Calm - N/A   Clear
1:34 AM 64.4 °F - 51.8 °F 64% 30.07 in 10.0 mi Calm Calm - N/A   Clear
1:55 AM 64.4 °F - 51.8 °F 64% 30.07 in 10.0 mi South 3.5 mph - N/A   Clear
2:15 AM 62.6 °F - 51.8 °F 68% 30.07 in 10.0 mi Calm Calm - N/A   Clear
2:34 AM 62.6 °F - 51.8 °F 68% 30.07 in 10.0 mi Calm Calm - N/A   Clear
2:55 AM 62.6 °F - 51.8 °F 68% 30.07 in 10.0 mi Calm Calm - N/A   Clear
3:15 AM 62.6 °F - 51.8 °F 68% 30.06 in 10.0 mi Calm Calm - N/A   Clear
3:34 AM 62.6 °F - 51.8 °F 68% 30.06 in 10.0 mi Calm Calm - N/A   Clear
3:55 AM 62.6 °F - 51.8 °F 68% 30.06 in 10.0 mi Calm Calm - N/A   Clear
4:15 AM 62.6 °F - 51.8 °F 68% 30.05 in 10.0 mi Calm Calm - N/A   Clear
4:34 AM 62.6 °F - 51.8 °F 68% 30.05 in 10.0 mi South 4.6 mph - N/A   Clear
4:55 AM 62.6 °F - 51.8 °F 68% 30.05 in 10.0 mi Calm Calm - N/A   Clear
5:14 AM 62.6 °F - 51.8 °F 68% 30.05 in 10.0 mi Calm Calm - N/A   Clear
5:35 AM 62.6 °F - 51.8 °F 68% 30.05 in 10.0 mi Calm Calm - N/A   Scattered Clouds
5:54 AM 62.6 °F - 53.6 °F 72% 30.05 in 10.0 mi Calm Calm - N/A   Mostly Cloudy
6:15 AM 62.6 °F - 53.6 °F 72% 30.05 in 10.0 mi Calm Calm - N/A   Scattered Clouds
6:35 AM 60.8 °F - 53.6 °F 77% 30.05 in 10.0 mi Calm Calm - N/A   Clear
6:54 AM 60.8 °F - 55.4 °F 82% 30.04 in 10.0 mi Calm Calm - N/A   Clear
7:15 AM 60.8 °F - 55.4 °F 82% 30.04 in 10.0 mi SSW 3.5 mph - N/A   Clear
7:35 AM 60.8 °F - 55.4 °F 82% 30.04 in 10.0 mi Calm Calm - N/A   Clear
7:54 AM 60.8 °F - 55.4 °F 82% 30.05 in 10.0 mi Calm Calm - N/A   Clear
8:15 AM 62.6 °F - 57.2 °F 82% 30.04 in 10.0 mi Calm Calm - N/A   Clear
8:35 AM 64.4 °F - 59.0 °F 83% 30.03 in 10.0 mi SSW 3.5 mph - N/A   Clear
8:54 AM 64.4 °F - 60.8 °F 88% 30.03 in 10.0 mi SSW 5.8 mph - N/A   Clear
9:15 AM 68.0 °F - 60.8 °F 78% 30.03 in 10.0 mi SW 8.1 mph - N/A   Clear
9:35 AM 68.0 °F - 62.6 °F 83% 30.03 in 10.0 mi WSW 5.8 mph - N/A   Clear
9:55 AM 69.8 °F - 62.6 °F 78% 30.02 in 10.0 mi SW 8.1 mph - N/A   Clear
10:15 AM 71.6 °F - 62.6 °F 73% 30.02 in 10.0 mi West 8.1 mph - N/A   Clear
10:34 AM 73.4 °F - 64.4 °F 73% 30.03 in 10.0 mi West 9.2 mph - N/A   Clear
10:55 AM 75.2 °F - 64.4 °F 69% 30.02 in 10.0 mi WSW 8.1 mph - N/A   Clear
11:15 AM 77.0 °F - 64.4 °F 65% 30.01 in 10.0 mi WSW 8.1 mph - N/A   Clear
11:34 AM 78.8 °F - 64.4 °F 61% 30.00 in 10.0 mi WSW 10.4 mph 16.1 mph N/A   Clear
11:55 AM 77.0 °F - 64.4 °F 65% 30.00 in 10.0 mi WSW 6.9 mph 17.3 mph N/A   Clear
12:15 PM 80.6 °F 82.3 °F 64.4 °F 58% 29.99 in 10.0 mi WSW 10.4 mph - N/A   Clear
12:34 PM 80.6 °F 82.3 °F 64.4 °F 58% 29.99 in 10.0 mi WSW 8.1 mph - N/A   Clear
12:55 PM 80.6 °F 82.3 °F 64.4 °F 58% 29.99 in 10.0 mi WSW 6.9 mph - N/A   Clear
1:15 PM 82.4 °F 83.9 °F 64.4 °F 54% 29.99 in 10.0 mi WSW 5.8 mph - N/A   Clear
1:34 PM 80.6 °F 81.8 °F 62.6 °F 54% 29.98 in 10.0 mi West 3.5 mph - N/A   Clear
1:55 PM 82.4 °F 83.4 °F 62.6 °F 51% 29.97 in 10.0 mi WSW 5.8 mph - N/A   Clear
2:15 PM 82.4 °F 83.4 °F 62.6 °F 51% 29.96 in 10.0 mi WSW 3.5 mph - N/A   Clear
2:34 PM 82.4 °F 83.4 °F 62.6 °F 51% 29.95 in 10.0 mi SW 5.8 mph 9.2 mph N/A   Clear
2:55 PM 82.4 °F 83.4 °F 62.6 °F 51% 29.95 in 10.0 mi SW 6.9 mph - N/A   Clear
3:14 PM 84.2 °F 85.0 °F 62.6 °F 48% 29.95 in 10.0 mi WSW 8.1 mph - N/A   Clear
3:35 PM 84.2 °F 85.0 °F 62.6 °F 48% 29.94 in 10.0 mi WSW 8.1 mph - N/A   Clear
3:55 PM 84.2 °F 85.0 °F 62.6 °F 48% 29.94 in 10.0 mi WSW 6.9 mph - N/A   Clear
4:14 PM 84.2 °F 85.0 °F 62.6 °F 48% 29.94 in 10.0 mi SSW 9.2 mph 16.1 mph N/A   Clear
4:35 PM 84.2 °F 85.0 °F 62.6 °F 48% 29.94 in 10.0 mi WSW 6.9 mph - N/A   Clear
4:54 PM 82.4 °F 83.4 °F 62.6 °F 51% 29.95 in 10.0 mi West 6.9 mph - N/A   Clear
5:15 PM 82.4 °F 83.4 °F 62.6 °F 51% 29.95 in 10.0 mi West 6.9 mph - N/A   Scattered Clouds
5:35 PM 82.4 °F 82.9 °F 60.8 °F 48% 29.94 in 10.0 mi WNW 8.1 mph - N/A   Scattered Clouds
5:54 PM 80.6 °F 81.5 °F 60.8 °F 51% 29.93 in 10.0 mi WNW 5.8 mph - N/A   Clear
6:15 PM 80.6 °F 80.8 °F 57.2 °F 45% 29.94 in 10.0 mi NW 6.9 mph - N/A   Clear
6:35 PM 78.8 °F - 60.8 °F 54% 29.94 in 10.0 mi WNW 5.8 mph - N/A Rain Light Rain
6:54 PM 78.8 °F - 60.8 °F 54% 29.93 in 10.0 mi West 5.8 mph - N/A   Scattered Clouds
7:15 PM 77.0 °F - 62.6 °F 61% 29.93 in 10.0 mi WNW 3.5 mph - N/A   Clear
7:35 PM 77.0 °F - 62.6 °F 61% 29.93 in 10.0 mi Calm Calm - N/A   Clear
7:55 PM 75.2 °F - 62.6 °F 65% 29.93 in 10.0 mi Calm Calm - N/A   Clear
8:15 PM 73.4 °F - 62.6 °F 69% 29.94 in 10.0 mi Calm Calm - N/A   Mostly Cloudy
8:34 PM 73.4 °F - 62.6 °F 69% 29.94 in 10.0 mi Calm Calm - N/A   Overcast
8:55 PM 71.6 °F - 64.4 °F 78% 29.95 in 10.0 mi Calm Calm - N/A   Overcast
9:15 PM 71.6 °F - 62.6 °F 73% 29.96 in 10.0 mi Calm Calm - N/A   Overcast
9:34 PM 73.4 °F - 62.6 °F 69% 29.96 in 10.0 mi Calm Calm - N/A   Overcast
9:55 PM 71.6 °F - 64.4 °F 78% 29.95 in 10.0 mi Calm Calm - N/A   Mostly Cloudy
10:15 PM 71.6 °F - 64.4 °F 78% 29.96 in 10.0 mi Calm Calm - N/A   Overcast
10:34 PM 71.6 °F - 64.4 °F 78% 29.96 in 10.0 mi Calm Calm - N/A   Overcast
10:55 PM 71.6 °F - 64.4 °F 78% 29.96 in 10.0 mi Calm Calm - N/A   Overcast
11:15 PM 71.6 °F - 64.4 °F 78% 29.96 in 10.0 mi Calm Calm - N/A   Overcast
11:34 PM 71.6 °F - 64.4 °F 78% 29.96 in 10.0 mi Calm Calm - N/A   Overcast
11:55 PM 71.6 °F - 66.2 °F 83% 29.96 in 10.0 mi Calm Calm - N/A   Overcast